Location: ?????????
(38.5999°N, 22.7695°E)
Time: 10:07:16
(UTC+00:00)

Timation 1 Rocket - Pass Details

Date: 23 May 2024
Orbit: 898 x 907 km, 70.0° (Epoch: 18 June)

Event Time Altitude Azimuth Distance (km) Brightness Sun altitude
Exits shadow 00:49:15 43° 237° (WSW) 1,247 4.6 -21.9°
Maximum altitude 00:51:04 62° 296° (WNW) 1,009 4.5 -21.7°
Drops below altitude 10° 00:56:58 10° 17° (NNE) 2,579 7.7 -21.0°
Sets 00:59:31 0° 21° (NNE) 3,523 8.8 -20.7°
